Location: Miami, Florida
(25.6830°N, 80.1700°W)
Time: 08:03:49
(UTC-04:00)

ISS - Visible Passes

Search period start: 21 November 2017 00:00
Search period end: 01 December 2017 00:00
Orbit: 402 x 407 km, 51.6° (Epoch: 21 November)

Date Brightness Start Highest point End Pass type
(mag) Time Alt. Az. Time Alt. Az. Time Alt. Az.
21 Nov -1.6 05:45:57 26° E 05:45:57 26° E 05:47:40 10° ESE visible
22 Nov -2.1 06:29:10 20° SW 06:29:10 20° SW 06:31:05 10° S visible
22 Nov -2.4 19:47:02 10° S 19:49:13 24° SE 19:49:13 24° SE visible
23 Nov -1.5 18:56:37 10° SE 18:57:41 11° SE 18:58:45 10° ESE visible
23 Nov -1.3 20:30:51 10° WSW 20:32:22 22° W 20:32:22 22° W visible
24 Nov -3.9 19:38:17 10° SW 19:41:32 86° WNW 19:42:43 37° NE visible
25 Nov -0.9 20:24:15 10° WNW 20:25:39 13° NW 20:25:39 13° NW visible
26 Nov -1.9 19:30:35 10° WSW 19:33:23 26° NW 19:35:49 12° N visible
28 Nov -0.9 19:24:49 10° NW 19:25:20 10° NW 19:25:51 10° NNW visible
